Location: The Saddle
(36.8333°N, 80.3417°W)
Time: 07:06:49
(UTC-05:00)

Vanguard 2 Rocket - Pass Details

Date: 16 December 2023
Orbit: 555 x 3309 km, 32.9° (Epoch: 02 March)

Event Time Altitude Azimuth Distance (km) Brightness Sun altitude
Rises 09:54:12 0° 211° (SSW) 3,880 10.5 21.1°
Reaches altitude 10° 09:56:47 10° 200° (SSW) 3,221 10.3 21.4°
Maximum altitude 10:04:05 33° 140° (SE) 2,671 11.5 22.2°
Drops below altitude 10° 10:15:40 10° 84° (E) 5,186 11.2 23.4°
Sets 10:21:10 0° 77° (ENE) 6,616 11.5 23.9°
